Stations météo

Publicité
Montelimar, France (7577): Température de l'air & dewpoint: 11.12.2017 03:00:00 - 17.12.2017 03:00:00 (CET)Montelimar, France (7577): Température de l'air 5cm: 11.12.2017 03:00:00 - 17.12.2017 03:00:00 (CET)Montelimar, France (7577): Température de l'air -20cm & Température de l'air -100cm: 11.12.2017 03:00:00 - 17.12.2017 03:00:00 (CET)Montelimar, France (7577): Vitesse du vent & gusts: 11.12.2017 03:00:00 - 17.12.2017 03:00:00 (CET)Montelimar, France (7577): Direction du vent: 11.12.2017 03:00:00 - 17.12.2017 03:00:00 (CET)Montelimar, France (7577): reduced air pressure: 11.12.2017 03:00:00 - 17.12.2017 03:00:00 (CET)Montelimar, France (7577): visibility: 11.12.2017 03:00:00 - 17.12.2017 03:00:00 (CET)Montelimar, France (7577): Ensoleillement: 11.12.2017 03:00:00 - 17.12.2017 03:00:00 (CET)Montelimar, France (7577): Quantités de précipitations: 11.12.2017 03:00:00 - 17.12.2017 03:00:00 (CET)
Date & Time tt [°C] td [°C] tt 5cm [°C] tt -20cm [°C] tt -100cm [°C] ff [km/h] ff [knt] fx [km/h] fx [knt] dd ppp [hPa] vv [km] sd [min] rr [mm]
17.12.2017 03:00:00 3,5 0,4 2,9 6,6 9,8 17 9 26 14 NNE 1023,7 20 0 0,0
17.12.2017 02:00:00 4,2 0,5 3,3 6,6 9,8 14 8 36 19 N 1023,1 20 0 0,0
17.12.2017 01:00:00 3,8 0,8 3,4 6,7 9,8 19 10 31 17 NNE 1022,9 20 0 0,0
17.12.2017 00:00:00 4,1 1,1 3,3 6,7 9,8 18 10 31 17 NNE 1022,9 20 0 0,0
16.12.2017 23:00:00 3,8 1,2 3,5 6,7 9,8 15 8 28 15 N 1022,3 20 0 0,0
16.12.2017 22:00:00 4,0 1,4 3,7 6,7 9,9 20 11 32 18 NNE 1022,0 20 0 0,0
16.12.2017 21:00:00 4,1 1,6 3,7 6,7 9,8 21 11 35 19 NNE 1021,3 20 0 0,0
16.12.2017 20:00:00 4,0 1,5 3,6 6,7 9,8 22 12 39 21 NNE 1020,8 20 0 0,0
16.12.2017 19:00:00 4,7 1,2 3,9 6,7 9,9 24 13 41 22 NNE 1019,7 20 0 0,0
16.12.2017 18:00:00 5,0 1,1 4,2 6,6 9,8 16 9 37 20 NNE 1018,7 19 0 0,0
16.12.2017 17:00:00 5,8 0,9 5,4 6,6 9,8 14 7 32 18 N 1017,9 20 0 0,0
16.12.2017 16:00:00 6,1 0,8 5,9 6,5 9,8 14 7 44 24 N 1017,1 20 16 0,0
16.12.2017 15:00:00 7,4 1,0 9,5 6,5 9,8 23 12 54 29 N 1015,7 20 60 0,0
16.12.2017 14:00:00 7,5 1,1 9,4 6,4 9,8 26 14 42 23 N 1015,4 20 60 0,0
16.12.2017 13:00:00 6,6 2,1 7,0 6,4 9,8 21 12 39 21 N 1015,0 20 45 0,0
16.12.2017 12:00:00 5,9 2,2 6,0 6,5 9,8 21 11 35 19 NNE 1015,1 20 36 0,0
16.12.2017 11:00:00 5,1 2,3 3,8 6,5 9,9 17 9 31 17 NNE 1015,1 20 25 0,0
16.12.2017 10:00:00 4,2 2,2 3,0 6,6 9,8 20 11 36 19 NNE 1014,2 17 0 0,2
16.12.2017 09:00:00 3,0 2,3 0,7 6,7 9,8 6 4 16 9 N 1012,6 20 2 0,0
16.12.2017 08:00:00 1,7 1,0 0,6 6,8 9,8 0 0 5 3 N 1011,9 7 0 0,0
16.12.2017 07:00:00 1,5 0,9 0,1 6,9 9,8 2 1 6 3 NNW 1011,0 6 0 0,0
16.12.2017 06:00:00 0,5 -0,1 -1,0 7,0 9,8 0 0 9 5 N 1010,3 0,4 0 0,0
16.12.2017 05:00:00 0,5 -0,2 -1,1 7,1 9,8 0 0 8 4 N 1009,1 0,2 0 0,0
16.12.2017 04:00:00 0,8 -0,1 -0,6 7,2 9,8 0 0 7 4 N 1009,1 3,9 0 0,0
16.12.2017 03:00:00 1,4 0,7 0,4 7,4 9,8 5 3 10 5 NE 1008,3 3,9 0 0,0
16.12.2017 02:00:00 1,0 0,1 -0,4 7,4 9,8 4 2 10 6 ENE 1007,5 6 0 0,0
16.12.2017 01:00:00 0,8 -0,2 -1,1 7,5 9,8 3 2 10 5 S 1007,1 14 0 0,0
16.12.2017 00:00:00 1,2 -0,1 -0,7 7,6 9,8 3 2 6 4 E 1006,8 7 0 0,0
15.12.2017 23:00:00 2,3 0,7 -0,2 7,6 9,8 0 0 6 3 N 1006,2 10 0 0,0
15.12.2017 22:00:00 3,9 1,8 2,1 7,6 9,8 5 3 10 5 ENE 1005,6 20 0 0,0
15.12.2017 21:00:00 5,3 3,0 4,5 7,6 9,8 9 5 20 11 NE 1004,5 20 0 2,4
15.12.2017 20:00:00 6,1 2,2 4,9 7,6 9,8 7 4 17 9 N 1004,2 14 0 0,0
15.12.2017 19:00:00 5,8 1,9 4,6 7,6 9,8 3 1 6 3 WNW 1003,2 15 0 0,0
15.12.2017 18:00:00 6,6 1,7 4,7 7,5 9,8 0 0 9 5 N 1003,3 20 0 0,0
15.12.2017 17:00:00 8,4 1,1 6,0 7,4 9,8 2 1 6 4 SSW 1003,3 20 10 0,0
15.12.2017 16:00:00 10,4 0,7 9,8 7,3 9,8 2 1 16 8 NNW 1003,2 20 46 0,0
15.12.2017 15:00:00 10,1 1,7 11,2 7,2 9,8 14 8 23 13 NNE 1003,0 20 58 0,0
15.12.2017 14:00:00 10,3 1,9 13,3 7,2 9,8 13 7 23 12 NNE 1003,5 20 60 0,0
15.12.2017 13:00:00 9,5 3,5 12,1 7,1 9,8 9 5 20 11 NNE 1004,2 20 60 0,0
15.12.2017 12:00:00 8,5 3,7 7,9 7,1 9,8 10 5 16 9 N 1005,1 20 37 0,0
15.12.2017 11:00:00 6,7 4,2 6,7 7,2 9,8 6 3 13 7 N 1006,0 20 1 0,0
15.12.2017 10:00:00 6,0 4,5 4,4 7,2 9,8 8 5 14 7 NNE 1005,8 20 0 0,0
15.12.2017 09:00:00 5,1 3,6 3,6 7,2 9,8 3 2 5 3 NE 1005,3 16 0 0,0
15.12.2017 08:00:00 5,9 4,2 4,9 7,2 9,7 3 2 10 6 E 1004,6 20 0 0,0
15.12.2017 07:00:00 6,1 3,8 5,3 7,2 9,7 4 2 13 7 ENE 1004,7 20 0 0,0
15.12.2017 06:00:00 6,7 4,4 5,8 7,3 9,8 8 5 22 12 NNE 1004,3 20 0 0,0
15.12.2017 05:00:00 7,7 5,2 4,6 7,3 9,8 10 5 18 10 N 1004,9 19 0 0,2
15.12.2017 04:00:00 7,4 4,7 5,2 7,3 9,8 4 2 9 5 NNE 1004,4 20 0 0,2
15.12.2017 03:00:00 8,2 4,4 4,5 7,3 9,8 2 1 13 7 SSW 1004,1 20 0 0,0
15.12.2017 02:00:00 8,8 4,2 7,0 7,4 9,8 4 2 26 14 WSW 1004,4 20 0 0,0
15.12.2017 01:00:00 9,7 4,7 8,9 7,4 9,8 12 6 35 19 S 1004,7 20 0 0,0
15.12.2017 00:00:00 10,4 5,4 8,3 7,4 9,7 17 9 34 19 S 1004,8 20 0 0,0
14.12.2017 23:00:00 8,9 5,5 5,8 7,5 9,7 7 4 18 10 SSW 1005,4 20 0 0,0
14.12.2017 22:00:00 6,6 4,1 3,3 7,5 9,8 4 2 16 9 SW 1006,1 15 0 0,0
14.12.2017 21:00:00 8,6 4,6 6,7 7,5 9,8 4 2 23 12 WNW 1007,4 18 0 0,0
14.12.2017 20:00:00 8,5 5,6 3,4 7,4 9,8 7 4 20 11 S 1007,2 20 0 0,0
14.12.2017 19:00:00 7,0 4,5 4,2 7,3 9,8 0 0 7 4 N 1007,7 14 0 0,0
14.12.2017 18:00:00 8,7 5,3 5,6 7,2 9,8 4 2 10 6 SSW 1007,7 20 0 0,0
14.12.2017 17:00:00 10,7 6,3 8,8 7,0 9,8 2 1 12 7 W 1008,4 17 22 0,0
14.12.2017 16:00:00 11,9 6,8 12,8 6,9 9,8 7 4 14 8 SW 1008,9 20 56 0,0
14.12.2017 15:00:00 12,1 6,4 13,5 6,8 9,8 8 4 17 9 SW 1009,5 20 60 0,0
14.12.2017 14:00:00 11,2 6,3 12,1 6,7 9,8 11 6 19 10 SSW 1010,4 20 60 0,0
14.12.2017 13:00:00 10,4 6,5 9,8 6,6 9,8 11 6 22 12 SSW 1011,5 20 40 0,0
14.12.2017 12:00:00 8,9 6,7 9,3 6,6 9,8 12 7 22 12 SSW 1012,3 19 0 0,0
14.12.2017 11:00:00 8,5 7,1 7,5 6,6 9,8 6 3 13 7 SSW 1013,8 10 2 0,0
14.12.2017 10:00:00 7,5 6,6 6,9 6,5 9,8 4 2 8 4 S 1013,7 8 0 0,0
14.12.2017 09:00:00 7,1 6,0 6,7 6,5 9,8 0 0 7 4 N 1013,9 6 0 0,0
14.12.2017 08:00:00 7,0 6,1 6,5 6,5 9,9 5 3 10 6 S 1013,2 5 0 0,0
14.12.2017 07:00:00 6,7 5,8 6,3 6,4 9,8 3 1 7 4 S 1013,1 3,0 0 0,0
14.12.2017 06:00:00 6,6 5,7 6,1 6,4 9,8 4 2 8 5 SE 1013,1 5 0 0,0
14.12.2017 05:00:00 6,3 5,3 5,9 6,4 9,8 3 2 8 4 ESE 1013,8 6 0 0,0
14.12.2017 04:00:00 6,3 5,3 5,7 6,4 9,8 3 2 7 4 E 1013,6 9 0 0,0
14.12.2017 03:00:00 6,0 4,8 5,6 6,3 9,9 4 2 9 5 S 1014,1 10 0 0,0
14.12.2017 02:00:00 5,9 4,7 5,4 6,3 9,9 3 2 10 5 WSW 1014,2 10 0 0,2
14.12.2017 01:00:00 5,8 4,3 5,0 6,3 9,9 8 4 18 10 SSW 1014,9 3,7 0 0,2
14.12.2017 00:00:00 6,0 2,8 5,0 6,3 9,9 11 6 16 9 S 1015,2 7 0 0,0
13.12.2017 23:00:00 6,6 1,3 6,0 6,2 9,9 9 5 18 10 SSW 1015,7 20 0 0,0
13.12.2017 22:00:00 6,2 1,3 5,3 6,2 9,9 8 4 14 8 SSW 1015,5 20 0 0,0
13.12.2017 21:00:00 5,9 1,4 4,8 6,2 9,9 4 2 9 5 S 1016,2 20 0 0,0
13.12.2017 20:00:00 5,6 1,7 4,6 6,1 9,9 3 1 8 4 SW 1016,7 13 0 0,0
13.12.2017 19:00:00 6,1 1,0 4,7 6,1 9,9 5 3 13 7 SW 1017,6 11 0 0,0
13.12.2017 18:00:00 5,9 0,4 5,4 6,0 9,9 7 4 10 6 SW 1017,9 20 0 0,0
13.12.2017 17:00:00 6,2 0,7 5,7 5,9 9,9 7 4 14 8 S 1018,6 20 0 0,0
13.12.2017 16:00:00 6,6 0,3 6,4 5,8 9,9 8 4 19 10 SW 1018,7 20 0 0,0
13.12.2017 15:00:00 6,5 0,0 7,0 5,8 9,9 10 5 18 10 SW 1018,7 20 0 0,0
13.12.2017 14:00:00 6,9 -1,3 7,7 5,7 9,9 10 6 20 11 S 1019,3 20 29 0,0
13.12.2017 13:00:00 5,7 -0,2 5,7 5,8 9,9 9 5 12 6 S 1020,0 20 44 0,0
13.12.2017 12:00:00 3,9 0,1 3,9 5,9 9,9 4 2 8 4 S 1020,6 18 43 0,0
13.12.2017 11:00:00 1,9 -1,0 3,2 6,0 9,9 2 1 6 4 SSW 1021,7 19 35 0,0
13.12.2017 10:00:00 1,0 -0,6 -1,2 6,0 9,9 0 0 6 3 N 1022,2 15 58 0,0
13.12.2017 09:00:00 -0,5 -1,6 -2,9 6,1 9,9 4 2 9 5 NNE 1022,2 11 11 0,0
13.12.2017 08:00:00 -0,8 -2,1 -3,2 6,2 9,9 4 2 10 5 NNW 1022,0 12 0 0,0
13.12.2017 07:00:00 -0,5 -2,2 -2,6 6,4 9,9 2 1 16 8 NW 1022,0 11 0 0,0
13.12.2017 06:00:00 0,6 -0,9 -0,2 6,5 9,9 6 3 22 12 N 1022,1 11 0 0,0
13.12.2017 05:00:00 1,0 -0,5 0,3 6,6 9,9 14 8 20 11 N 1021,7 10 0 0,0
13.12.2017 04:00:00 1,3 -0,6 -0,2 6,7 9,9 9 5 18 10 N 1021,7 18 0 0,0
13.12.2017 03:00:00 1,0 -0,3 -1,7 6,8 9,9 7 4 11 6 N 1022,1 15 0 0,0
13.12.2017 02:00:00 0,8 -1,0 -1,4 6,9 9,9 0 0 13 7 N 1022,1 9 0 0,0
13.12.2017 01:00:00 2,7 0,8 1,3 7,0 9,9 9 5 18 10 N 1021,7 19 0 0,0
13.12.2017 00:00:00 2,4 0,1 0,2 7,0 9,9 9 5 14 8 N 1021,1 20 0 0,0
12.12.2017 23:00:00 2,9 -0,2 1,2 7,1 9,9 7 4 14 8 NNE 1021,0 20 0 0,0
12.12.2017 22:00:00 4,1 -0,5 2,5 7,2 9,9 9 5 16 9 N 1020,2 20 0 0,0
12.12.2017 21:00:00 4,5 0,3 3,4 7,2 9,9 8 4 19 10 NNW 1019,9 20 0 0,0
12.12.2017 20:00:00 4,7 0,6 3,6 7,3 9,9 10 6 22 12 N 1019,3 20 0 0,0
12.12.2017 19:00:00 4,6 0,9 2,2 7,3 9,9 9 5 19 10 NNE 1018,9 20 0 0,0
12.12.2017 18:00:00 5,8 1,1 5,0 7,3 9,9 13 7 27 15 N 1017,5 20 0 0,0
12.12.2017 17:00:00 6,2 1,7 5,6 7,2 9,9 15 8 29 16 N 1016,7 20 14 0,0
12.12.2017 16:00:00 6,7 1,8 6,6 7,2 9,9 19 10 34 18 NNE 1016,1 20 35 0,0
12.12.2017 15:00:00 7,7 2,0 8,2 7,2 9,9 16 9 31 17 N 1015,6 20 46 0,0
12.12.2017 14:00:00 6,4 2,3 6,6 7,2 9,8 18 10 31 17 NNE 1014,8 20 15 0,0
12.12.2017 13:00:00 6,1 1,8 6,8 7,2 9,8 18 10 37 20 NNE 1014,6 20 0 0,0
12.12.2017 12:00:00 6,2 2,3 5,9 7,3 9,8 21 11 35 19 N 1014,3 20 0 0,0
12.12.2017 11:00:00 5,5 2,0 5,8 7,4 9,8 18 10 35 19 N 1014,1 20 0 0,0
12.12.2017 10:00:00 5,4 2,2 5,1 7,5 9,9 17 9 32 17 N 1012,8 20 0 0,0
12.12.2017 09:00:00 5,2 2,0 4,8 7,5 9,8 19 10 36 19 N 1011,6 20 0 0,0
12.12.2017 08:00:00 5,0 2,0 4,1 7,6 9,8 14 7 35 19 N 1010,6 20 0 0,0
12.12.2017 07:00:00 4,2 3,5 1,0 7,7 9,8 7 4 11 6 N 1009,1 8 0 0,0
12.12.2017 06:00:00 3,5 2,6 2,1 7,8 9,8 0 0 6 3 N 1007,5 4,1 0 0,0
12.12.2017 05:00:00 3,4 2,2 1,2 7,8 9,8 0 0 4 2 N 1006,3 4,4 0 0,0
12.12.2017 04:00:00 3,9 2,3 1,7 7,8 9,8 0 0 7 4 N 1005,4 1,4 0 0,0
12.12.2017 03:00:00 5,4 4,2 3,8 7,8 9,8 4 2 8 4 SSE 1004,4 18 0 0,0
12.12.2017 02:00:00 6,1 4,6 4,9 7,9 9,8 5 3 8 5 S 1002,8 17 0 0,0
12.12.2017 01:00:00 7,0 5,5 6,7 7,9 9,8 5 3 13 7 SW 1001,8 19 0 0,0
12.12.2017 00:00:00 7,1 5,4 6,7 7,9 9,8 5 3 16 9 SW 1000,6 16 0 0,0
11.12.2017 23:00:00 7,2 6,0 6,6 7,9 9,8 3 1 10 5 S 999,4 19 0 0,0
11.12.2017 22:00:00 7,0 5,8 5,5 7,9 9,8 3 1 6 3 NNE 997,7 11 0 0,2
11.12.2017 21:00:00 7,6 6,4 6,9 7,8 9,8 5 3 16 9 S 996,4 20 0 0,0
11.12.2017 20:00:00 8,1 6,6 7,5 7,8 9,8 11 6 20 11 S 995,1 20 0 0,0
11.12.2017 19:00:00 7,9 6,5 7,4 7,8 9,8 5 3 10 5 WSW 993,3 20 0 0,2
11.12.2017 18:00:00 8,2 6,7 7,6 7,7 9,8 0 0 9 5 N 992,3 12 0 0,8
11.12.2017 17:00:00 8,5 7,0 7,9 7,6 9,8 4 2 9 5 SE 990,9 9 0 0,8
11.12.2017 16:00:00 8,8 7,2 8,4 7,4 9,8 5 3 19 10 S 989,3 20 0 1,4
11.12.2017 15:00:00 9,5 7,4 8,8 7,2 9,8 5 3 24 13 SSW 987,7 11 0 1,8
11.12.2017 14:00:00 10,7 8,3 9,8 7,1 9,8 16 9 42 23 SSW 986,6 9 0 2,7
11.12.2017 13:00:00 12,0 10,4 11,5 6,9 9,8 19 11 45 24 S 985,3 11 0 1,0
11.12.2017 12:00:00 12,9 11,3 12,3 6,7 9,8 19 10 35 19 S 985,1 8 0 1,2
11.12.2017 11:00:00 13,1 11,3 12,1 6,6 9,8 17 9 36 20 S 985,2 10 0 0,2
11.12.2017 10:00:00 13,1 11,2 12,1 6,4 9,8 27 15 54 29 S 985,2 10 0 1,4
11.12.2017 09:00:00 13,2 11,3 12,1 6,2 9,8 29 15 63 34 S 984,8 7 0 2,4
11.12.2017 08:00:00 13,3 11,0 12,1 6,1 9,8 29 16 69 38 SSE 985,1 8 0 0,8
11.12.2017 07:00:00 13,4 10,7 12,0 6,0 9,8 29 16 63 34 SSE 985,4 17 0 0,4
11.12.2017 06:00:00 13,1 10,5 11,3 5,9 9,9 26 14 54 29 S 986,5 19 0 1,0
11.12.2017 05:00:00 12,6 10,1 10,0 5,8 9,8 22 12 44 24 S 987,4 12 0 2,4
11.12.2017 04:00:00 10,7 9,6 5,9 5,8 9,9 16 9 36 19 SSW 988,9 12 0 0,6
11.12.2017 03:00:00 5,8 5,1 5,2 5,8 9,9 3 2 8 4 S 990,3 3,9 0 0,0

tt = Température de l'air
td = dewpoint
tt 5cm = Température de l'air 5cm
tt -20cm = Température de l'air -20cm
tt -100cm = Température de l'air -100cm
ff = Vitesse du vent
fx = gusts
dd = Direction du vent
ppp = reduced air pressure
vv = visibility
sd = Ensoleillement
rr = Quantités de précipitations

stations d'obs. à proximité